Regional Weather Roundup
Issued by NWS

Home | Current Version | Previous Version | Text Only | Print | Product List | Glossary Off
Versions: 1 2 3 4 5 6 7 8 9 10 11 12 13 14 15 16 17 18 19 20 21 22 23 24 25 26 27 28 29 30 31 32 33 34 35 36 37 38 39 40 41 42 43 44 45 46 47 48 49 50

000
ASUS43 KMKX 311400
RWRWI

WISCONSIN REGIONAL WEATHER ROUNDUP
NATIONAL WEATHER SERVICE MILWAUKEE/SULLIVAN WI
900 AM CDT MON AUG 31 2015

NOTE: "FAIR" INDICATES FEW OR NO CLOUDS BELOW 12,000 FEET WITH NO
SIGNIFICANT WEATHER AND/OR OBSTRUCTIONS TO VISIBILITY.

WIZ001-002-006>008-014>016-023>028-311500-
NORTHWEST WISCONSIN

CITY           SKY/WX    TMP DP  RH WIND       PRES   REMARKS
SUPERIOR ARPT  SUNNY     64  64  99 SW3       29.88F
ASHLAND        SUNNY     70  66  87 S7        29.92S
HAYWARD        CLOUDY    68  64  87 S12       29.96F
SIREN          CLOUDY    68  65  91 SW12G17   29.93F
CUMBERLAND     CLOUDY    64  63  94 S7        29.98S FOG
RICE LAKE      CLOUDY    65  64  95 S6        30.00S FOG
CHETEK         CLOUDY   N/A N/A N/A MISG      29.99S FOG
LADYSMITH      FOG       64  64  97 S6        30.02R VSB 1/2
EAU CLAIRE     CLOUDY    66  64  93 S5        29.99S FOG
MENOMONIE      CLOUDY    67  66  99 SE5       29.99S FOG
NEW RICHMOND   CLOUDY    67  67  98 S9        29.96S FOG
OSCEOLA        CLOUDY    68  68 100 S9        29.97S FOG
$$

WIZ003>005-009-010-017-018-311500-
NORTH CENTRAL WISCONSIN

CITY           SKY/WX    TMP DP  RH WIND       PRES   REMARKS
MANITOWISH WTR CLOUDY    65  63  96 SW8       30.00S
ARBOR VITAE    CLOUDY    65  63  91 SW10      30.01R
WOODRUFF       CLOUDY    65  63  91 SW10      30.01R
RHINELANDER    CLOUDY    65  63  93 SW8       30.03R FOG
EAGLE RIVER    CLOUDY    65  62  89 SW9       30.01S
LAND O LAKES   SUNNY     67  62  84 SW6       30.01S
PHILLIPS       FOG       64  64 100 S6        30.00S VSB 1
TOMAHAWK       FOG       64  63  97 CALM      30.03S VSB 3/4
MEDFORD        FOG       63  63 100 SW8       30.03R VSB 1/4
MERRILL        CLOUDY    64  64 100 SW3       30.04S FOG
$$

WIZ029-030-035-036-043>047-311500-
CENTRAL WISCONSIN

CITY           SKY/WX    TMP DP  RH WIND       PRES   REMARKS
WAUSAU         CLOUDY    63  62  97 CALM      30.03R FOG
MOSINEE        FOG       63  63 100 S5        30.05R VSB 1/2
MARSHFIELD     FOG       64  61  90 SW5       30.04R VSB 1/4
STEVENS POINT  CLOUDY    61  61 100 S3        30.04S FOG
WAUPACA        CLOUDY    66  65  96 SW3       30.04S FOG
WAUTOMA        NOT AVBL
WISC RAPIDS    CLOUDY    65  63  93 SW3       30.05S FOG
CAMP DOUGLAS   NOT AVBL
$$

WIZ011>013-019>022-031-037>040-048>050-311500-
NORTHEAST WISCONSIN

CITY           SKY/WX    TMP DP  RH WIND       PRES   REMARKS
ANTIGO         FOG       62  62 100 W6        30.04S VSB 1/4
SHAWANO        FOG       65  64  96 SW6       30.03S VSB 3/4
OCONTO         CLOUDY    63  63 100 W8        30.01S
STURGEON BAY   CLOUDY    66  63  88 W10       30.04R
GREEN BAY      MOSUNNY   67  65  93 SW7       30.03S FOG
MANITOWOC      NOT AVBL
APPLETON       CLOUDY    64  64 100 SW7       30.03S FOG
CLINTONVILLE   CLOUDY    63  63 100 SW5       30.03S FOG
OSHKOSH        CLOUDY    66  63  90 SW7       30.05R
$$

WIZ032>034-041-042-053>061-311500-
SOUTHWEST WISCONSIN

CITY           SKY/WX    TMP DP  RH WIND       PRES   REMARKS
LA CROSSE      CLOUDY    66  64  93 S7        30.01S FOG
SPARTA         CLOUDY    66  64  93 CALM      30.03S
VIROQUA          N/A     64  64 100 S5        30.05S VSB 1/4
BOSCOBEL       FOG       62  61  96 CALM      30.04S VSB<1/4
PRAIRIE DU CHI SUNNY     62  61  96 CALM      30.04R FOG
PLATTEVILLE    SUNNY     64  64 100 SE7       30.06S
$$

WIZ056-057-062-063-064-067-068-311500-
SOUTH CENTRAL WISCONSIN

CITY           SKY/WX    TMP DP  RH WIND       PRES   REMARKS
REEDSBURG      CLOUDY    65  65  97 S3        30.04F
BARABOO/DELLS  CLOUDY    66  64  93 CALM      30.05S
LONE ROCK      MOSUNNY   64  62  93 E3        30.06S
MINERAL POINT  PTSUNNY   64  63  94 SE5       30.07S FOG
MADISON        CLOUDY    66  64  93 S5        30.06S
MIDDLETON      CLOUDY    67  67 100 CALM      30.07R
WATERTOWN      CLOUDY    61  61 100 CALM      30.07S FOG
MONROE         SUNNY     64  64 100 S6        30.07S FOG
JANESVILLE     FOG       64  63  94 CALM      30.07S VSB 1/4
$$

WIZ051-052-058>065-066-070>072-311500-
SOUTHEAST WISCONSIN

CITY           SKY/WX    TMP DP  RH WIND       PRES   REMARKS
MILWAUKEE      MOSUNNY   66  64  93 SW5       30.07S FOG
WAUKESHA       NOT AVBL
MILWAUKEE/TIMM SUNNY     64  63  94 SW5       30.07S
RACINE         SUNNY     68  64  87 SW3       30.09R
BURLINGTON     FOG       60  60  99 CALM      30.08R VSB 1/2
KENOSHA        SUNNY     66  65  96 SW3       30.09R
FOND DU LAC    CLOUDY    66  64  93 SW7       30.06R
SHEBOYGAN      SUNNY     66  65  96 S6        30.05S
WEST BEND      SUNNY     64  63  94 CALM      30.06S
JUNEAU         CLOUDY    60  60  99 CALM      30.08S FOG
$$

LSZ147-162-311500-
LAKE SUPERIOR

STATION/POSITION TIME  TEMP    WIND        PRES    WAVE
                       AIR SEA DIR/SP/G            HT/PER
                 (UTC) (F)     (DEG/KT/KT) (MB)    (FT/S)
W MID LAKE BUOY  1250   58 54  200/  6/  6 1012.5S   1
DEVILS ISLAND    1300   65     180/  7/ 10 1012.2S
PORT WING        1340   69     190/  6/ 13 1012.5R
SAXON HARBOR     1300   67     170/  1/  7 1012.5F
$$

LMZ867-665-643>646-311500-
LAKE MICHIGAN

STATION/POSITION TIME  TEMP    WIND        PRES    WAVE
                       AIR SEA DIR/SP/G            HT/PER
                 (UTC) (F)     (DEG/KT/KT) (MB)    (FT/S)
CHAMBERS ISLAND  1300   62     200/  4/  7 1015.9R
S GREEN BAY BUOY 1300   63 63  240/ 10/ 12 1017.6R
N MID LAKE BUOY  1250   64 65  210/ 10/ 12 1015.4R   2/ 4
NORTHPORT PIER   1300   67     230/  6/  9 1015.6S
SHEBOYGAN LAKESH 1300   60     180/  7/  7 1017.7R
PORT WASHINGTON  1300   61     190/  4/  5 1018.6R
ATWATER BUOY     1300   56 49   CALM  /  2 1019.4R
MILWAUKEE LAKESH 1310   64     220/  5/  5   N/A
S MID LAKE BUOY  1350   68 68  220/  4/  4 1018.2R   0
KENOSHA   LAKESH 1300   59     190/  2/  4 1018.3R
$$

TC  - TEMPERATURE IN CELSIUS
VSB - VISIBILITY IN STATUTE MILES
WCI - WIND CHILL INDEX
HX  - HEAT INDEX




USA.gov is the U.S. government's official web portal to all federal, state and local government web resources and services.